Location: Kelowna
(49.8880°N, 119.4960°W)
Time: 23:51:39
(UTC-07:00)

TIGRISAT - Visible Passes

Search period start: 10 June 2026 00:00
Search period end: 20 June 2026 00:00
Orbit: 578 x 649 km, 97.8° (Epoch: 10 June)

Date Brightness Start Highest point End Pass type
(mag) Time Alt. Az. Time Alt. Az. Time Alt. Az.
10 Jun ? 02:17:59 10° E 02:19:58 13° ENE 02:21:58 10° NNE visible
10 Jun ? 03:51:12 10° SSE 03:55:23 84° WSW 03:59:34 10° NNW visible
11 Jun ? 02:32:09 10° ESE 02:34:56 18° ENE 02:37:42 10° NNE visible
11 Jun ? 04:06:25 10° S 04:10:33 59° W 04:14:39 10° NNW visible
12 Jun ? 02:46:37 10° ESE 02:49:55 23° ENE 02:53:12 10° N visible
13 Jun ? 03:01:16 10° SE 03:04:57 31° ENE 03:08:36 10° N visible
14 Jun ? 03:16:03 10° SE 03:19:59 43° ENE 03:23:54 10° N visible
15 Jun ? 03:30:58 10° SSE 03:35:03 61° ENE 03:39:07 10° N visible
16 Jun ? 02:13:15 10° ENE 02:14:48 12° ENE 02:16:21 10° NE visible
16 Jun ? 03:46:00 10° SSE 03:50:08 87° ENE 03:54:17 10° NNW visible
17 Jun ? 02:27:13 10° E 02:29:43 16° ENE 02:32:13 10° NNE visible
17 Jun ? 04:01:09 10° S 04:05:15 66° WSW 04:09:22 10° NNW visible
18 Jun ? 02:41:34 10° ESE 02:44:40 21° ENE 02:47:47 10° NNE visible
19 Jun ? 02:56:07 10° SE 02:59:39 28° ENE 03:03:10 10° N visible
